STARLINK-34470, 64703

Orbit data source: Space-Track

STARLINK-34470, 64703 is a payload satellite owned by SpaceX/Seattle (US) in LEO that was launched on Sat, 28 Jun 2025 UTC via an FALCON 9 launch vehicle from the Air Force Western Test Range (AFWTR). Payload-class satellites include a variety of spacecraft equipped with specific instruments for various scientific and technological missions. These include communications satellites like Starlink; space stations such as the ISS; scientific satellites like the Hubble; Earth observation satellites from companies like Planet Labs, Umbra, and HawkEye 360; GPS; miniature CubeSats for education and research; and military/defense satellites.

Not visible in the next 10 days
Identifier
64703, 2025-142H
Orbit
LEO
Last TLE update
9 hours ago
Origin
Manufacturer
SpaceX/Seattle
Mission
Operational spacecraft
Bus & Motor
STARLINK V2MO, Unknown motor
Mass
575 kg wet, ~530 kg dry
Launch date (UTC)
2025-06-28 (1 week ago)
Launch vehicle
FALCON 9
Launch site
Air Force Western Test Range (AFWTR)
Object type
Payload
Rocket body
Debris
Shape & HBR
Unknown
Radar Cross Section
RCS unknown

Expand to show TLE details & history

TLE from 9 hours ago
0 STARLINK-34470
1 64703U 25142H   25186.58335648 -.01108703  00000-0 -45361-2 0  9991
2 64703  69.9953 231.3353 0003959 277.9934  49.7598 15.88316767  2084
Epoch: 2025-07-05T14:00Z
TLE epoch observation values (Epoch: 2025-07-05T14:00:01.999Z)
Latitude
-30.31458°
Longitude
85.28776°
Altitude
316.157 km
Speed
7.718 km/s
True Right ascension
14h 36m 27s
True Declination
-30° 09' 18"
Sunlit
Object was in full shadow at epoch
Visualization orbit readout
Latitude
-58.23655°
Longitude
-47.75945°
Altitude
329.363 km
Speed
7.711 km/s
Apparent Right ascension
01h 23m 30s
Apparent Declination
-62° 00' 18"
Sunlit
Object is in daylight
Visualization observer readout
Local Sidereal Time
10:39:36
Azimuth
214.382° SW
Elevation
-56.97°
Doppler factor
1
Orbital elements
Apogee altitude
307.515 km
Perigee altitude
302.223 km
Semi-major axis
6,683.006 km
Eccentricity
0.0004
Inclination
69.9953°
RAAN
231.3353°
Arg. of periapsis
277.9934°
True anomaly
Unknown
Mean anomaly
49.7598°
Eccentric anomaly
Unknown
Mean motion
3.9727 °/min
Orbital period
90.62 mins
BSTAR
-0.0045361
Loading maneuver chart data...
Loading SW <> Apogee altitude chart data...
Loading historical data...
Loading historical data...
Loading historical data...
Loading historical data...
Loading historical data...
Loading historical data...
Loading historical data...

STARLINK-34470 Visibility

Observer location: undefined°, undefined°

STARLINK-34470 is likely not visible in the next few days
Span
Click to sort rows by Start time (UTC) header in descending order
Start Az.
Max El. time (UTC)
Max El. Az.
Max El.
End time (UTC)
End Az.
|